Location: Newark
(25.6108°S, 54.5803°W)
Time: 00:07:05
(UTC+00:00)

Vanguard 3 - Pass Details

Date: 04 November 2020
Orbit: 508 x 3262 km, 33.3° (Epoch: 24 November)

Event Time Altitude Azimuth Distance (km) Brightness Sun altitude
Rises 00:06:27 0° 245° (WSW) 2,639 11.0 -27.2°
Reaches altitude 10° 00:08:34 10° 242° (WSW) 1,730 9.8 -27.6°
Enters shadow 00:10:54 37° 228° (SW) 835 7.7 -28.0°
